Messages - map view · info · telemetry · weather · raw · status · beacons · messages · bulletins · browse · moving · my account
Callsign:
Show:

Loading message packets...

APRS messages are stored for 14 days. It is possible to search using wildcards (*?) after a prefix.

2019-04-18 09:11:34 CDT: MTHOOD>N7QME: hum 43 12 82
2019-04-18 09:11:40 CDT: KJ4ERJ-E2>KJ4ERJ-AP: Bad temperature CRCs after 3 good (133~=198) on pin 6 index 1 from:9(128 1 11 70 127 254 16 0 198)
2019-04-18 09:11:40 CDT: KJ4ERJ-E2>KJ4ERJ-AP: CRC Restored after 2 bad (198==198) on pin 6 index 1 from:9(128 1 75 70 127 255 16 16 198)
2019-04-18 09:11:43 CDT: KJ4ERJ-E2>KJ4ERJ-AP: Bad temperature CRCs after 2 good (113~=81) on pin 6 index 1 from:9(129 1 75 70 127 255 15 16 81)
2019-04-18 09:11:46 CDT: KJ4ERJ-E2>KJ4ERJ-AP: CRC Restored after 3 bad (112==112) on pin 6 index 1 from:9(130 1 75 70 127 255 14 16 112)
2019-04-18 09:11:49 CDT: KJ4ERJ-E2>KJ4ERJ-AP: Bad temperature CRCs after 1 good (50~=112) on pin 6 index 1 from:9(130 1 10 70 127 255 14 16 112)
2019-04-18 09:11:55 CDT: KJ4ERJ-E2>KJ4ERJ-AP: CRC Restored after 5 bad (113==113) on pin 6 index 1 from:9(129 1 75 70 127 255 15 16 113)
2019-04-18 09:12:08 CDT: SMWMWW>BOM_WARN: 191430z,WIND,SA_MW001
2019-04-18 09:12:08 CDT: SMWMWW>BOMSMW: Strong Wind Warning for coastal waters between WA-SA Border
2019-04-18 09:12:08 CDT: SMWMWW>BOMSMW: and Fowlers Bay for Friday
2019-04-18 09:12:26 CDT: N2MH-15>NWS_STMNT: 190200z,Coastal Flood,NJZ006-106-108-NYZ074
2019-04-18 09:12:29 CDT: KJ4ERJ-E2>KJ4ERJ-AP: Bad temperature CRCs after 21 good (217~=82) on pin 6 index 1 from:9(132 1 75 70 127 254 12 16 82)
2019-04-18 09:12:31 CDT: KJ4ERJ-E2>KJ4ERJ-AP: CRC Restored after 2 bad (102==102) on pin 6 index 1 from:9(131 1 75 70 127 255 13 16 102)
2019-04-18 09:12:47 CDT: KJ4ERJ-E2>KJ4ERJ-AP: Bad temperature CRCs after 7 good (37~=70) on pin 6 index 1 from:9(130 1 75 70 127 255 13 16 70)
2019-04-18 09:12:49 CDT: KJ4ERJ-E2>KJ4ERJ-AP: CRC Restored after 2 bad (102==102) on pin 6 index 1 from:9(131 1 75 70 127 255 13 16 102)
2019-04-18 09:12:52 CDT: KJ4ERJ-E2>KJ4ERJ-AP: Bad temperature CRCs after 1 good (143~=102) on pin 6 index 1 from:9(131 1 10 70 127 254 13 16 102)
2019-04-18 09:12:54 CDT: KJ4ERJ-E2>KJ4ERJ-AP: CRC Restored after 2 bad (102==102) on pin 6 index 1 from:9(131 1 75 70 127 255 13 16 102)
2019-04-18 09:13:00 CDT: KJ4ERJ-E2>KJ4ERJ-AP: Bad temperature CRCs after 4 good (244~=102) on pin 6 index 1 from:9(3 1 75 70 127 255 13 16 102)
2019-04-18 09:13:02 CDT: KJ4ERJ-E2>KJ4ERJ-AP: CRC Restored after 2 bad (114==114) on pin 6 index 1 from:9(132 1 75 70 127 255 12 16 114)
2019-04-18 09:13:14 CDT: VK2GJ-2>VK2GJ-7: Directs=VK2AMW-1
2019-04-18 09:13:40 CDT: KJ4ERJ-E2>KJ4ERJ-AP: Bad temperature CRCs after 22 good (99~=94) on pin 6 index 1 from:9(134 0 75 70 127 255 10 16 94)
2019-04-18 09:13:44 CDT: KJ4ERJ-E2>KJ4ERJ-AP: CRC Restored after 3 bad (72==72) on pin 6 index 1 from:9(135 1 75 70 127 255 9 16 72)
2019-04-18 09:13:44 CDT: G0RSQ>G4FKH: A,-93.1,-99.3,-101.4,B,-98.1,-99.5,-100.9,C,-102.7,-110.6,-111.7,D,-103,-104.5,-105.8,E,-107.1,-110.2,-111.8
2019-04-18 09:13:46 CDT: LU1HVK-1>APRS: lu1hvk@qsl.net Saludos de Leones - Cordoba AR...
2019-04-18 09:13:48 CDT: KJ4ERJ-E2>KJ4ERJ-AP: Bad temperature CRCs after 2 good (0~=118) on pin 6 index 1 from:9(136 1 75 70 127 255 0 16 118)
2019-04-18 09:13:49 CDT: KJ4ERJ-E2>KJ4ERJ-AP: CRC Restored after 2 bad (45==45) on pin 6 index 1 from:9(137 1 75 70 127 255 7 16 45)
2019-04-18 09:13:55 CDT: KJ4ERJ-E2>KJ4ERJ-AP: Bad temperature CRCs after 3 good (106~=58) on pin 6 index 1 from:9(131 1 75 70 127 225 4 16 58)
2019-04-18 09:13:57 CDT: KJ4ERJ-E2>KJ4ERJ-AP: CRC Restored after 2 bad (58==58) on pin 6 index 1 from:9(139 1 75 70 127 255 5 16 58)
2019-04-18 09:14:05 CDT: KJ4ERJ-E2>KJ4ERJ-AP: Bad temperature CRCs after 3 good (179~=46) on pin 6 index 1 from:9(140 1 75 70 127 255 4 0 46)
2019-04-18 09:14:06 CDT: FW0727>FW0727: UPTM.0 days, 12:04:46
2019-04-18 09:14:07 CDT: KJ4ERJ-E2>KJ4ERJ-AP: CRC Restored after 2 bad (46==46) on pin 6 index 1 from:9(140 1 75 70 127 255 4 16 46)
2019-04-18 09:14:23 CDT: KJ4ERJ-E2>KJ4ERJ-AP: Bad temperature CRCs after 9 good (135~=44) on pin 6 index 1 from:9(138 1 75 70 127 254 6 16 44)
2019-04-18 09:14:24 CDT: KJ4ERJ-E2>KJ4ERJ-AP: CRC Restored after 2 bad (44==44) on pin 6 index 1 from:9(138 1 75 70 127 255 6 16 44)
2019-04-18 09:14:44 CDT: VE3IGX-7>VE3IGX-9: hi test
2019-04-18 09:14:46 CDT: DB0LUH-1>LU1HVK-1: rejUISS54}
2019-04-18 09:14:50 CDT: DB0TS-10>DB0TS-9: T#001,000,000,000,000,000,00000000,Test
2019-04-18 09:15:10 CDT: KJ4ERJ-E2>KJ4ERJ-AP: Bad temperature CRCs after 30 good (16~=45) on pin 6 index 1 from:9(137 0 75 70 127 255 7 16 45)
2019-04-18 09:15:13 CDT: KJ4ERJ-E2>KJ4ERJ-AP: CRC Restored after 3 bad (45==45) on pin 6 index 1 from:9(137 1 75 70 127 255 7 16 45)
2019-04-18 09:15:25 CDT: KJ4ERJ-E2>KJ4ERJ-AP: Bad temperature CRCs after 5 good (177~=44) on pin 6 index 1 from:9(138 1 75 70 127 255 6 0 44)
2019-04-18 09:15:29 CDT: KJ4ERJ-E2>KJ4ERJ-AP: CRC Restored after 2 bad (45==45) on pin 6 index 1 from:9(137 1 75 70 127 255 7 16 45)
2019-04-18 09:16:07 CDT: KJ4ERJ-E2>KJ4ERJ-AP: Bad temperature CRCs after 24 good (7~=58) on pin 6 index 1 from:9(139 0 75 70 127 255 5 16 58)
2019-04-18 09:16:08 CDT: KJ4ERJ-E2>KJ4ERJ-AP: CRC Restored after 2 bad (58==58) on pin 6 index 1 from:9(139 1 75 70 127 255 5 16 58)
2019-04-18 09:16:12 CDT: HB9CRY-7>SOTA: hb/be-123 7.1800 ssb hb9cry/p qrv now
2019-04-18 09:16:12 CDT: SOTA>HB9CRY-7: Spotted:HB9CRY/P on HB/BE-123 7.180 SSB
2019-04-18 09:16:14 CDT: KJ4ERJ-E2>KJ4ERJ-AP: Bad temperature CRCs after 5 good (176~=12) on pin 6 index 1 from:9(138 1 74 70 127 254 6 16 12)
2019-04-18 09:16:18 CDT: KJ4ERJ-E2>KJ4ERJ-AP: CRC Restored after 2 bad (58==58) on pin 6 index 1 from:9(139 1 75 70 127 255 5 16 58)
2019-04-18 09:16:29 CDT: VR2XKP-3>VR2XKP-13: test
2019-04-18 09:16:31 CDT: KJ4ERJ-E2>KJ4ERJ-AP: Bad temperature CRCs after 8 good (152~=58) on pin 6 index 1 from:9(139 1 75 6 126 255 4 16 58)
2019-04-18 09:16:34 CDT: KJ4ERJ-E2>KJ4ERJ-AP: CRC Restored after 2 bad (58==58) on pin 6 index 1 from:9(139 1 75 70 127 255 5 16 58)
2019-04-18 09:16:34 CDT: KJ4ERJ-E2>KJ4ERJ-AP: Bad temperature CRCs after 1 good (145~=50) on pin 6 index 1 from:9(139 1 75 70 127 254 5 16 50)
< previous
FAQ · Blog · Discussion group · Linking to aprs.fi · AIS sites · Service status · Database statistics · Advertising on aprs.fi · Technical details · API · Change log · Planned changes · Credits and thanks · Terms Of Service · iPhone/iPad APRS